AirNav   ProFlight Series 2 Aviation Headset
 
 1215 users online  

6FD8 Broward Health Medical Center Heliport
Fort Lauderdale, Florida, USA

GOING TO FORT LAUDERDALE?


FAA INFORMATION EFFECTIVE 13 AUGUST 2020

Location

FAA Identifier: 6FD8
Lat/Long: 26-06-14.3120N 080-08-29.1630W
26-06.238533N 080-08.486050W
26.1039756,-80.1414342
(estimated)
Elevation: 27 ft. / 8 m (estimated)
Variation: 03W (1985)
Time zone: UTC -4 (UTC -5 during Standard Time)
Zip code: 33316

Heliport Operations

Heliport use: Private use, MEDICAL
Activation date: 03/1988
Control tower: no
ARTCC: MIAMI CENTER
FSS: MIAMI FLIGHT SERVICE STATION
Attendance: UNATNDD
Wind indicator: yes
Segmented circle: no

Heliport Communications

WX ASOS at FLL (2.0 nm S): PHONE 954-359-7857
WX ASOS at FXE (6 nm N): PHONE 954-772-2537
WX ASOS at HWO (8 nm SW): PHONE 954-983-5904
WX ASOS at PMP (9 nm N): 120.55 (954-783-3720)
WX ASOS at OPF (14 nm SW): 125.9 (305-681-4063)
WX AWOS-3 at BCT (17 nm N): 121.125 (561-391-2696)

Nearby radio navigation aids

VOR radial/distance  VOR name  Freq  Var
FLLr043/2.3FORT LAUDERDALE VOR/DME114.4006W
VKZr006/21.1VIRGINIA KEY VOR/DME117.1004W
DHPr036/21.4DOLPHIN VORTAC113.9004W
PBIr188/34.7PALM BEACH VORTAC115.7003W

Heliport Services

Runway Information

Helipad H1

Dimensions: 60 x 60 ft. / 18 x 18 m
Surface: concrete
Latitude: 26-06.238533N
Longitude: 080-08.486050W
Elevation: 27.0 ft.
Traffic pattern: leftleft

Heliport Ownership and Management from official FAA records

Ownership: Publicly-owned
Owner: BROWARD HEALTH MEDICAL CENTER
1600 S. ANDREWS AVE
FT LAUDERDALE, FL 33316
Phone 954-355-4400
Manager: DIANA DOMINGUEZ
1600 S. ANDREWS AVE
FT LAUDERDALE, FL 33316
Phone 954-355-5770

Additional Remarks

FOR CD CTC MIAMI APCH AT 305-869-5432.

Instrument Procedures

There are no published instrument procedures at 6FD8.

Some nearby airports with instrument procedures:

KFLL - Fort Lauderdale/Hollywood International Airport (2 nm S)
KFXE - Fort Lauderdale Executive Airport (6 nm N)
KHWO - North Perry Airport (8 nm SW)
KPMP - Pompano Beach Airpark (9 nm N)
KOPF - Miami-Opa Locka Executive Airport (14 nm SW)
KBCT - Boca Raton Airport (17 nm N)
 
Loc | Ops | Rwys | IFR | FBO | Links
Com | Nav | Svcs | Stats | Notes

Reliance Aviation
AirBoss

 
Area around 6FD8 (Broward Health Medical Center Heliport)
 
Road maps at: MapQuest Bing Google
 
Aerial photo
No photo
 
Sectional chart

 
Airport distance calculator
Flying to Broward Health Medical Center Heliport? Find the distance to fly.

From to 6FD8

Sunrise and sunset
Times for 14-Aug-2020
 Local
(UTC-4)
 Zulu
(UTC)
Morning civil twilight06:3010:30
Sunrise06:5410:54
Sunset19:5623:56
Evening civil twilight20:2000:20

Current date and time
Zulu (UTC)  14-Aug-2020 22:32:35
Local (UTC-4)  14-Aug-2020 18:32:35
 
METAR
KFLL 
2nm S 
142153Z 14008KT 10SM FEW028 FEW250 32/24 A2994 RMK AO2 SLP139 T03170239
KFXE 
6nm N 
142153Z 13008KT 10SM CLR 32/24 A2995 RMK AO2 SLP143 T03170239
KHWO 
8nm SW 
142153Z 14010KT 10SM CLR 32/23 A2996 RMK AO2 SLP144 T03220233
KPMP 
9nm N 
142153Z 11007KT 080V150 10SM FEW028 A2995 RMK AO2 SLP144 $
KOPF 
14nm SW 
142153Z 14009KT 10SM FEW037 31/23 A2995 RMK AO2 SLP143 T03110228
KBCT 
17nm N 
142147Z 12005G12KT 10SM FEW028 32/24 A2996
TAF
KFLL 
2nm S 
142107Z 1421/1524 13010KT P6SM FEW029 SCT250 FM150200 VRB03KT P6SM SKC FM151300 14010KT P6SM SCT035
KFXE 
6nm N 
142107Z 1421/1518 13010KT P6SM SKC FM150100 VRB03KT P6SM SKC FM151400 13008KT P6SM SCT035
KOPF 
14nm SW 
142107Z 1421/1518 12008KT P6SM SKC FM150100 VRB03KT P6SM SKC FM151400 14008KT P6SM SCT035
NOTAMs
Click for the latest NOTAMs
NOTAMs are issued by the DoD/FAA and will open in a separate window not controlled by AirNav.

 

 
 

Would you like to see your business listed on this page?

 If your business provides an interesting product or service to pilots, flight crews, aircraft, or users of the Broward Health Medical Center Heliport, you should consider listing it here.  To start the listing process, click on the button below
 
Add a business
 

Other Pages about Broward Health Medical Center Heliport

Update a link
 
Copyright © AirNav, LLC. All rights reserved. Privacy Policy  Contact